THOR AGENA B DEB, 510

Orbit data source: Space-Track

THOR AGENA B DEB, 510 is space debris in LEO originally from a launch on Sat, 29 Sep 1962 UTC launched from the Air Force Western Test Range (AFWTR). Debris objects in space refer to the collection of defunct objects orbiting the Earth. Examples of debris include non-operational satellites, rocket bodies, and fragments generated from explosions, collisions, or faulty payload assembly.

Loading next visibility...
Identifier
510, 1962-049C
Orbit
LEO
Country
Flag of USUS
Related business
Manufacturer
Unknown
Mission
Spacecraft
Bus & Motor
Unknown
Mass
Unknown
Launch date (UTC)
1962-09-29 (64 years ago)
Launch vehicle
Unknown
Launch site
Air Force Western Test Range (AFWTR)
Object type
Payload
Rocket body
Debris
Shape & HBR
Unknown shape, 0.1 m
Radar Cross Section
Small (<0.1 m²)

Expand to show TLE details & history
Last TLE update: 4 hours ago

TLE from 4 hours ago
0 THOR AGENA B DEB
1 00510U 62049C   26101.28956950  .00000065  00000-0  63671-4 0  9999
2 00510  80.5171  31.5081 0014603 265.1528 250.3557 13.70061695173502
Epoch: 2026-04-11T06:56Z
TLE epoch observation values (Epoch: 2026-04-11T06:56:58.804Z)
Latitude
24.31602°
Longitude
-96.55403°
Altitude
1,005.844 km
Speed
7.349 km/s
True Right ascension
13h 48m 48s
True Declination
24° 11' 30"
Sunlit
Object was in full shadow at epoch
Visualization orbit readout
Latitude
Unknown
Longitude
Unknown
Altitude
Unknown
Speed
Unknown
Apparent Right ascension
Unknown
Apparent Declination
Unknown
Sunlit
N/A
Visualization observer readout
Local Sidereal Time
17:29:47
Azimuth
Unknown
Elevation
Unknown
Doppler factor
Unknown
Orbital elements
Apogee altitude
1,007.382 km
Perigee altitude
985.844 km
Semi-major axis
7,374.75 km
Eccentricity
0.00146
Inclination
80.5171°
RAAN
31.5081°
Arg. of periapsis
265.1528°
True anomaly
250.1982°
Mean anomaly
250.3557°
Eccentric anomaly
250.27694°
Mean motion
3.42706 °/min
Orbital period
105.05 mins
BSTAR
0.000063671
Loading maneuver chart data...
Computing Atmospheric mass density...
Loading historical data...
Loading historical data...
Loading historical data...
Loading historical data...
Loading historical data...
Loading historical data...
Loading historical data...
Other satellites on launch #49 in the year 1962 (1962-09-29 UTC)

Documentation

Showing up to 5 results
|